sat.trackr.live / text

‹ back to catalog

STARLINK-30036

NORAD 56692 · 2023-067E

PAYLOAD ACTIVE UNKNOWN

§ Identity

Operator
Country
US
Launch date
2023-05-19
Launch site
AFETR
Launch vehicle
Mass (kg)
RCS (m²)

Purposes: comms

External: N2YO · Heavens-Above · Gunter

§ Orbital elements

Epoch: 2026-09-20T16:35:37.056768Z

Period
94.27 min
Inclination
43.0025°
Eccentricity
0.0001641
Mean motion
15.27580666 rev/d
Perigee alt
481.9 km
Apogee alt
484.2 km
Semi-major
6,861.2 km
B*
2.4695e-5
RAAN
259.9612°
Arg perigee
268.0269°
Mean anomaly
92.0395°
Rev number
18,427

§ Raw data

STARLINK-300361 56692U 23067E   26263.69140112  .00000417  00000+0  24695-4 0  99902 56692  43.0025 259.9612 0001641 268.0269  92.0395 15.27580666184279

JSON: /api/v1/satellites/56692 · /tle

For live sub-satellite position, see the globe view (requires WebGL).

§ Visibility from observer

Set your observer location to see the next 7 days of passes ≥ 10°. The values pass through the URL so the page stays shareable.

No JS? Fill the form by hand. The geolocation button needs JavaScript.